Weather History for KLWC - July, 2014

Change the Weather History Date:

Friday, July 4, 2014

  Actual Average Record
Temperature  
Mean Temperature 71 °F 78 °F  
Max Temperature 85 °F 88 °F 103 °F (2012)
Min Temperature 56 °F 67 °F 51 °F (1997)
Degree Days  
Heating Degree Days 0 0  
Month to date heating degree days 1 0  
Since 1 June heating degree days 1 8  
Since 1 July heating degree days 1 0  
Cooling Degree Days 6 12  
Month to date cooling degree days 16 48  
Year to date cooling degree days 527 442  
Since 1 June cooling degree days 334 323  
Growing Degree Days 20 (Base 50)    
Moisture  
Dew Point 58 °F    
Average Humidity 68    
Maximum Humidity 93    
Minimum Humidity 43    
Precipitation  
Precipitation 0.00 in 0.16 in 1.18 in (2010)
Month to date precipitation 0.00 0.69  
Year to date precipitation 16.82 20.04  
Sea Level Pressure  
Sea Level Pressure 30.21 in    
Wind  
Wind Speed 8 mph (SE)    
Max Wind Speed 17 mph    
Max Gust Speed 22 mph    
Visibility 10 miles    
Events      
T = Trace of Precipitation, MM = Missing Value Source: NWS Daily Summary

Daily Weather History Graph

Daily Weather History Graph

Search for Another Location

Airport or City:

Trip Planner

Search our weather history database for the weather conditions in past years. The results will help you decide how hot, cold, wet, or windy it might be!

Date:

Astronomy

Jul. 04, 2014 Rise Set
Actual Time 6:00 AM CDT 8:49 PM CDT
Civil Twilight 5:28 AM CDT 9:21 PM CDT
Nautical Twilight 4:48 AM CDT 10:01 PM CDT
Astronomical Twilight 4:02 AM CDT 10:47 PM CDT
Moon 12:53 PM CDT (7/4) 12:16 AM CDT (7/4)
Length of Visible Light 15h 53m
Length of Day
14h 49m
Waxing Crescent, 42% of the Moon is Illuminated
Jul 4
Waxing Crescent
Jul 5
First Quarter
Jul 12
Full
Jul 18
Last Quarter
Jul 26
New

Hourly Weather History & Observations

Time (CDT) Temp. Heat Index Dew Point Humidity Pressure Visibility Wind Dir Wind Speed Gust Speed Precip Events Conditions
12:52 AM 61.0 °F - 57.0 °F 87% 30.23 in 10.0 mi Calm Calm - N/A   Clear
1:52 AM 61.0 °F - 55.9 °F 83% 30.23 in 10.0 mi Calm Calm - N/A   Clear
2:52 AM 57.9 °F - 55.0 °F 90% 30.25 in 10.0 mi Calm Calm - N/A   Clear
3:52 AM 57.9 °F - 54.0 °F 87% 30.24 in 10.0 mi Calm Calm - N/A   Clear
4:52 AM 57.0 °F - 55.0 °F 93% 30.24 in 10.0 mi Calm Calm - N/A   Clear
5:52 AM 57.0 °F - 54.0 °F 89% 30.25 in 9.0 mi Calm Calm - N/A   Clear
6:52 AM 60.1 °F - 57.0 °F 90% 30.25 in 10.0 mi East 3.5 mph - N/A   Clear
7:52 AM 64.0 °F - 59.0 °F 84% 30.26 in 10.0 mi ESE 4.6 mph - N/A   Clear
8:52 AM 69.1 °F - 60.1 °F 73% 30.27 in 10.0 mi SSE 5.8 mph - N/A   Clear
9:52 AM 75.9 °F - 57.0 °F 52% 30.26 in 10.0 mi SE 11.5 mph - N/A   Clear
10:52 AM 79.0 °F - 55.9 °F 45% 30.26 in 10.0 mi SSE 12.7 mph - N/A   Clear
11:52 AM 81.0 °F 81.0 °F 57.0 °F 44% 30.26 in 10.0 mi SSE 12.7 mph - N/A   Clear
12:52 PM 82.9 °F 82.6 °F 57.9 °F 42% 30.25 in 10.0 mi SE 11.5 mph - N/A   Clear
1:52 PM 84.0 °F 83.8 °F 59.0 °F 43% 30.24 in 10.0 mi SSE 15.0 mph - N/A   Clear
2:52 PM 82.9 °F 82.6 °F 57.9 °F 42% 30.21 in 10.0 mi SSE 9.2 mph 20.7 mph N/A   Clear
3:52 PM 84.0 °F 83.8 °F 59.0 °F 43% 30.19 in 10.0 mi SE 12.7 mph - N/A   Clear
4:52 PM 84.9 °F 84.4 °F 59.0 °F 41% 30.18 in 10.0 mi SSE 12.7 mph - N/A   Clear
5:52 PM 84.0 °F 83.8 °F 59.0 °F 43% 30.17 in 10.0 mi SSE 15.0 mph - N/A   Clear
6:52 PM 82.0 °F 82.7 °F 61.0 °F 49% 30.16 in 10.0 mi SSE 9.2 mph - N/A   Clear
7:52 PM 79.0 °F - 61.0 °F 54% 30.14 in 10.0 mi SSE 9.2 mph - N/A   Clear
8:52 PM 72.0 °F - 62.1 °F 71% 30.14 in 10.0 mi SE 5.8 mph - N/A   Clear
9:52 PM 69.1 °F - 61.0 °F 75% 30.14 in 10.0 mi ESE 6.9 mph - N/A   Clear
10:52 PM 66.0 °F - 61.0 °F 84% 30.15 in 10.0 mi ESE 6.9 mph - N/A   Clear
11:52 PM 66.9 °F - 62.1 °F 84% 30.14 in 6.0 mi SE 6.9 mph - N/A   Haze